Weather in Riviera di Ulisse

Italy     41°12′43″N   13°34′18″E
temp.,
°C
wind,
m/s
gust,
m/s
humid.,
%
clouds,
%
prec.,
mm/h
press.,
hPa
HPBL,
m
22 april, thu
thu2223:00+12ene2354100 0.0 1019146
02:00+11sse3354100 0.1 1019310
05:00+12ne4457100 0.0 1017170
08:00+9ene4482100 1.9 1018181
11:00+10ne4590100 5.5 1018163
14:00+11ne2394100 14.3 1018172
17:00+11ne2291100 5.6 1017146
20:00+11ene3390100 7.5 1017113
23 april, fri
fri2323:00+12nne338598 0.1 101894
02:00+12nne228297 0.1 101878
05:00+12ne338098 0.0 101781
08:00+13ne2378100 0.0 1018118
11:00+15ene126526 0.0 1018489
14:00+17se1360100 0.0 1017997
17:00+16sse2365100 0.1 1017483
20:00+14nw0080100 0.1 101816
24 april, sat
sat2423:00+13n2280100 0.0 101826
02:00+12ne3375100 0.1 101866
05:00+12nne3372100 0.0 101773
08:00+13nne3372100 0.0 1018104
11:00+17sw02577 0.0 1018666
14:00+17wsw446323 0.0 1018666
17:00+16w55752 0.0 1017512
20:00+14wnw23870 0.1 101846
25 april, sun
sun2523:00+13e33848 0.0 102047
02:00+12ne22740 0.0 101945
05:00+11nne22715 0.0 101946
08:00+13ne116499 0.0 1019108
11:00+15s2259100 0.0 1019490
14:00+15sw22555 0.0 1019481
17:00+15ssw225799 0.0 1018368
20:00+13wnw1174100 0.0 101942
26 april, mon
mon2623:00+12ene227354 0.0 101933
02:00+12ne227570 0.0 101864
05:00+11e227640 0.0 101778
08:00+13e22725 0.0 1017161
11:00+15se347097 0.0 1016465
14:00+16sse3366100 0.0 1015395
17:00+16se3364100 0.0 1012266
20:00+14e2266100 0.0 101135